TIANWANG 1B (TW-1B)
1 40927U 15051C   19354.39084671  .00011351  00000-0  15320-3 0  9999
2 40927  97.1149  39.5098 0008793  63.6004   1.4940 15.57901247238737
TIANWANG 1A (TW-1A)
1 40928U 15051D   19354.54584729  .00002271  00000-0  55660-4 0  9999
2 40928  97.1279  21.6730 0012383 116.6017  37.0056 15.41686852237647
LAPAN A2
1 40931U 15052B   19352.99822069  .00000535  00000-0 -14603-4 0  9997
2 40931   5.9937 189.3915 0013188 231.8732 128.1161 14.76621044228394
LQSAT
1 40958U 15057A   19354.45743738 -.00000005  00000-0  68786-5 0  9993
2 40958  97.8786  58.4533 0018349  12.8068 347.3602 14.73100755226009
CHUBUSAT 2
1 41338U 16012B   19353.59853373 +.00000289 +00000-0 +15715-4 0  9995
2 41338 031.0042 055.9626 0013692 124.7960 235.3966 15.00221387210550
CHUBUSAT 3
1 41339U 16012C   19354.54470843  .00000258  00000-0  13228-4 0  9992
2 41339  31.0127  47.8062 0013394 141.0313 219.1290 15.00391829210696
OUFTI-1
1 41458U 16025C   19353.83058959 +.00001660 +00000-0 +86661-4 0  9998
2 41458 098.0999 090.0604 0166382 097.7861 264.2290 15.06321185200280
E-STAR-2
1 41459U 16025D   19354.49069733  .00001675  00000-0  88022-4 0  9993
2 41459  98.0994  90.3020 0167602  97.3273 264.7047 15.05926092200350
AAUSAT 4
1 41460U 16025E   19354.49131346  .00002059  00000-0  10465-3 0  9997
2 41460  98.0969  92.0448 0157101  88.0738 273.8478 15.08011866200517
NUSAT 1
1 41557U 16033B   19354.52962310  .00000932  00000-0  37223-4 0  9990
2 41557  97.4122  80.9355 0013849  11.6673 348.4884 15.27608227198308
BEESAT 4
1 41619U 16040W   19353.83704974 +.00001170 +00000-0 +51786-4 0  9995
2 41619 097.3458 052.4343 0012909 095.7965 264.4744 15.23549211181893
PRATHAM
1 41783U 16059A   19353.71357942 +.00000047 +00000-0 +18196-4 0  9993
2 41783 098.0444 048.9958 0034014 163.2001 197.0336 14.63027258172458
ALSAT 1N
1 41789U 16059G   19354.43325545  .00000068  00000-0  21855-4 0  9992
2 41789  98.0472  52.1035 0029073 149.2346 211.0571 14.64284437172681
NAYIF 1
1 42017U 17008BX  19353.85862752 +.00001329 +00000-0 +54504-4 0  9991
2 42017 097.3836 058.8859 0004925 229.9272 130.1535 15.25988832158001
MAX VALIER SAT
1 42778U 17036P   19353.72905771 +.00000823 +00000-0 +38668-4 0  9992
2 42778 097.3318 047.1209 0010800 301.6953 058.3230 15.22307762138233
